GORIZONT 33 [-]

Last updated on Aug. 14, 2020, 5:30 a.m. UTC

1 26372U 00029A   20226.15775052  .00000070  00000-0  00000-0 0  9992
2 26372  12.7574  22.2521 0003782  33.9974 151.2084  1.00229581 74029
UTC
Height (km)
Latitude
Longitude
Inclination
Orbital Period
UTC large
Height (km)
Speed (km/s)
/
Latitude / Longitude
Inclination (degrees)
Orbital Period (minutes)
Azimuth
Elevation
Range (km)
Doppler Factor
iOS Compass Heading
iOS Angle

Next 30 passes for location: Hong Kong

Rise time Rise Azimuth (degrees) Set time Set Azimuth (degrees) Duration Max altitude (degrees)

No matching passes for this satellites